| time (UTC) | temp F | wind direction | speed MPH | gust MPH | rain 1hr in | rain 24hr in | rain mn in | humidity % | barometer mb |
| 20260510094550 | 45 | 360 | 5.0 | 7.0 | 0.00 | 0.00 | 0.00 | 47 | 1007.4 |
| 20260510094035 | 45 | 360 | 6.0 | 7.0 | 0.00 | 0.00 | 0.00 | 47 | 1007.3 |
| 20260510093533 | 45 | 360 | 6.0 | 7.0 | 0.00 | 0.00 | 0.00 | 46 | 1007.3 |
| 20260510093032 | 45 | 360 | 6.0 | 7.0 | 0.00 | 0.00 | 0.00 | 46 | 1007.2 |
| 20260510092533 | 46 | 360 | 5.0 | 7.0 | 0.00 | 0.00 | 0.00 | 46 | 1007.2 |
| 20260510092029 | 46 | 360 | 6.0 | 7.0 | 0.00 | 0.00 | 0.00 | 45 | 1007.2 |
| 20260510091528 | 46 | 360 | 5.0 | 6.0 | 0.00 | 0.00 | 0.00 | 45 | 1007.2 |
| 20260510091028 | 46 | 360 | 5.0 | 6.0 | 0.00 | 0.00 | 0.00 | 44 | 1007.2 |
| 20260510090529 | 47 | 360 | 5.0 | 7.0 | 0.00 | 0.00 | 0.00 | 44 | 1007.1 |
| 20260510090037 | 47 | 360 | 5.0 | 7.0 | 0.00 | 0.00 | 0.00 | 44 | 1007.1 |
| 20260510085528 | 46 | 360 | 5.0 | 7.0 | 0.00 | 0.00 | 0.00 | 45 | 1007.2 |
| 20260510084527 | 46 | 360 | 5.0 | 7.0 | 0.00 | 0.00 | 0.00 | 45 | 1007.0 |
| 20260510084028 | 47 | 360 | 6.0 | 7.0 | 0.00 | 0.00 | 0.00 | 44 | 1007.1 |
| 20260510083525 | 47 | 360 | 6.0 | 7.0 | 0.00 | 0.00 | 0.00 | 44 | 1007.1 |
| 20260510083029 | 47 | 360 | 5.0 | 6.0 | 0.00 | 0.00 | 0.00 | 43 | 1007.0 |
| 20260510082524 | 47 | 360 | 5.0 | 6.0 | 0.00 | 0.00 | 0.00 | 43 | 1007.1 |
| 20260510082023 | 48 | 360 | 5.0 | 6.0 | 0.00 | 0.00 | 0.00 | 42 | 1007.1 |
| 20260510081524 | 48 | 360 | 5.0 | 6.0 | 0.00 | 0.00 | 0.00 | 42 | 1007.1 |
| 20260510081024 | 48 | 360 | 5.0 | 6.0 | 0.00 | 0.00 | 0.00 | 42 | 1007.1 |
| 20260510080523 | 48 | 360 | 5.0 | 6.0 | 0.00 | 0.00 | 0.00 | 41 | 1007.2 |
| 20260510080028 | 48 | 360 | 4.0 | 5.0 | 0.00 | 0.00 | 0.00 | 41 | 1007.1 |
| 20260510075522 | 48 | 360 | 4.0 | 5.0 | 0.00 | 0.00 | 0.00 | 41 | 1007.1 |
| 20260510074523 | 48 | 360 | 5.0 | 6.0 | 0.00 | 0.00 | 0.00 | 42 | 1007.2 |
| 20260510074023 | 48 | 360 | 5.0 | 6.0 | 0.00 | 0.00 | 0.00 | 42 | 1007.2 |
| 20260510073522 | 48 | 360 | 4.0 | 5.0 | 0.00 | 0.00 | 0.00 | 42 | 1007.2 |
| 20260510073022 | 49 | 360 | 4.0 | 5.0 | 0.00 | 0.00 | 0.00 | 41 | 1007.2 |
| 20260510072522 | 49 | 360 | 4.0 | 5.0 | 0.00 | 0.00 | 0.00 | 41 | 1007.0 |
| 20260510072022 | 49 | 360 | 4.0 | 6.0 | 0.00 | 0.00 | 0.00 | 40 | 1006.9 |
| 20260510071523 | 49 | 360 | 4.0 | 5.0 | 0.00 | 0.00 | 0.00 | 40 | 1006.9 |
| 20260510071021 | 49 | 360 | 4.0 | 5.0 | 0.00 | 0.00 | 0.00 | 40 | 1007.0 |
| 20260510070524 | 49 | 360 | 2.0 | 5.0 | 0.00 | 0.00 | 0.00 | 41 | 1007.0 |
| 20260510070029 | 49 | 360 | 3.0 | 6.0 | 0.00 | 0.00 | 0.00 | 41 | 1007.0 |
| 20260510065521 | 49 | 360 | 4.0 | 7.0 | 0.00 | 0.00 | 0.00 | 41 | 1007.0 |
| 20260510064521 | 49 | 360 | 6.0 | 7.0 | 0.00 | 0.00 | 0.00 | 40 | 1007.0 |
| 20260510064020 | 49 | 360 | 6.0 | 7.0 | 0.00 | 0.00 | 0.00 | 41 | 1007.0 |
| 20260510063519 | 49 | 360 | 5.0 | 7.0 | 0.00 | 0.00 | 0.00 | 40 | 1006.9 |
| 20260510063020 | 50 | 360 | 4.0 | 6.0 | 0.00 | 0.00 | 0.00 | 40 | 1006.8 |
| 20260510062519 | 50 | 360 | 4.0 | 6.0 | 0.00 | 0.00 | 0.00 | 40 | 1007.0 |
| 20260510062021 | 50 | 360 | 3.0 | 6.0 | 0.00 | 0.00 | 0.00 | 40 | 1007.1 |
| 20260510061518 | 50 | 360 | 0.0 | 6.0 | 0.00 | 0.00 | 0.00 | 40 | 1006.9 |
| 20260510061019 | 50 | 360 | 4.0 | 7.0 | 0.00 | 0.00 | 0.00 | 40 | 1006.9 |
| 20260510060518 | 50 | 360 | 4.0 | 8.0 | 0.00 | 0.00 | 0.00 | 41 | 1006.9 |
| 20260510060017 | 50 | 360 | 5.0 | 9.0 | 0.00 | 0.00 | 0.00 | 41 | 1006.9 |
| 20260510055519 | 50 | 360 | 7.0 | 10.0 | 0.00 | 0.00 | 0.00 | 40 | 1006.8 |
| 20260510054516 | 50 | 360 | 7.0 | 9.0 | 0.00 | 0.00 | 0.00 | 42 | 1006.5 |
| 20260510054015 | 50 | 360 | 6.0 | 8.0 | 0.00 | 0.00 | 0.00 | 43 | 1006.6 |
| 20260510053514 | 50 | 360 | 6.0 | 8.0 | 0.00 | 0.00 | 0.00 | 43 | 1006.5 |
| 20260510053013 | 49 | 360 | 6.0 | 8.0 | 0.00 | 0.00 | 0.00 | 43 | 1006.5 |
| 20260510052513 | 49 | 360 | 6.0 | 8.0 | 0.00 | 0.00 | 0.00 | 44 | 1006.3 |
| 20260510052013 | 49 | 360 | 6.0 | 8.0 | 0.00 | 0.00 | 0.00 | 44 | 1006.3 |
| 20260510051511 | 49 | 360 | 6.0 | 8.0 | 0.00 | 0.00 | 0.00 | 45 | 1006.2 |
| 20260510051011 | 49 | 360 | 6.0 | 8.0 | 0.00 | 0.00 | 0.00 | 45 | 1006.0 |
| 20260510050514 | 49 | 360 | 6.0 | 8.0 | 0.00 | 0.00 | 0.00 | 45 | 1005.9 |
| 20260510050010 | 48 | 360 | 6.0 | 8.0 | 0.00 | 0.00 | 0.00 | 45 | 1005.9 |
| 20260510045514 | 49 | 360 | 6.0 | 8.0 | 0.00 | 0.00 | 0.00 | 45 | 1005.9 |
| 20260510044516 | 48 | 360 | 6.0 | 8.0 | 0.00 | 0.00 | 0.00 | 45 | 1005.7 |
| 20260510044010 | 48 | 360 | 7.0 | 8.0 | 0.00 | 0.00 | 0.00 | 46 | 1005.7 |
| 20260510043508 | 48 | 360 | 6.0 | 8.0 | 0.00 | 0.00 | 0.00 | 46 | 1005.6 |
| 20260510043008 | 48 | 360 | 6.0 | 7.0 | 0.00 | 0.00 | 0.00 | 46 | 1005.6 |
| 20260510042508 | 48 | 360 | 6.0 | 8.0 | 0.00 | 0.00 | 0.00 | 47 | 1005.5 |
| 20260510042007 | 48 | 360 | 6.0 | 7.0 | 0.00 | 0.00 | 0.00 | 47 | 1005.5 |
| 20260510041506 | 48 | 360 | 6.0 | 8.0 | 0.00 | 0.00 | 0.00 | 47 | 1005.4 |
| 20260510041005 | 48 | 360 | 6.0 | 8.0 | 0.00 | 0.00 | 0.00 | 47 | 1005.4 |
| 20260510040504 | 49 | 360 | 6.0 | 8.0 | 0.00 | 0.00 | 0.00 | 46 | 1005.4 |
| 20260510040004 | 49 | 360 | 6.0 | 8.0 | 0.00 | 0.00 | 0.00 | 46 | 1005.4 |
| 20260510035502 | 49 | 360 | 6.0 | 8.0 | 0.00 | 0.00 | 0.00 | 45 | 1005.2 |
| 20260510034501 | 49 | 360 | 7.0 | 9.0 | 0.00 | 0.00 | 0.00 | 46 | 1005.1 |
| 20260510034101 | 49 | 360 | 7.0 | 8.0 | 0.00 | 0.00 | 0.00 | 47 | 1005.2 |
| 20260510033559 | 49 | 360 | 7.0 | 9.0 | 0.00 | 0.00 | 0.00 | 47 | 1005.1 |
| 20260510033137 | 49 | 360 | 7.0 | 9.0 | 0.00 | 0.00 | 0.00 | 47 | 1005.1 |
| 20260510032557 | 50 | 360 | 7.0 | 9.0 | 0.00 | 0.00 | 0.00 | 46 | 1004.9 |
| 20260510032057 | 50 | 360 | 6.0 | 8.0 | 0.00 | 0.00 | 0.00 | 46 | 1004.9 |
| 20260510031615 | 50 | 360 | 6.0 | 9.0 | 0.00 | 0.00 | 0.00 | 46 | 1004.7 |
| 20260510031054 | 50 | 360 | 6.0 | 8.0 | 0.00 | 0.00 | 0.00 | 45 | 1004.8 |
| 20260510030554 | 51 | 360 | 6.0 | 8.0 | 0.00 | 0.00 | 0.00 | 45 | 1004.6 |
| 20260510030058 | 51 | 360 | 6.0 | 8.0 | 0.00 | 0.00 | 0.00 | 44 | 1004.5 |
| 20260510025552 | 52 | 360 | 6.0 | 8.0 | 0.00 | 0.00 | 0.00 | 43 | 1004.5 |
| 20260510024551 | 54 | 360 | 5.0 | 7.0 | 0.00 | 0.00 | 0.00 | 41 | 1004.4 |
| 20260510024052 | 54 | 360 | 5.0 | 7.0 | 0.00 | 0.00 | 0.00 | 41 | 1004.3 |
| 20260510023549 | 54 | 11 | 5.0 | 6.0 | 0.00 | 0.00 | 0.00 | 40 | 1004.2 |
| 20260510023048 | 54 | 15 | 5.0 | 6.0 | 0.00 | 0.00 | 0.00 | 40 | 1004.1 |
| 20260510022548 | 55 | 13 | 5.0 | 6.0 | 0.00 | 0.00 | 0.00 | 40 | 1004.0 |
| 20260510022051 | 55 | 11 | 5.0 | 6.0 | 0.00 | 0.00 | 0.00 | 40 | 1004.0 |
| 20260510021546 | 55 | 17 | 5.0 | 6.0 | 0.00 | 0.00 | 0.00 | 40 | 1003.9 |
| 20260510021046 | 55 | 13 | 5.0 | 6.0 | 0.00 | 0.00 | 0.00 | 40 | 1003.7 |
| 20260510020545 | 55 | 15 | 5.0 | 7.0 | 0.00 | 0.00 | 0.00 | 40 | 1003.8 |
| 20260510020048 | 56 | 17 | 5.0 | 7.0 | 0.00 | 0.00 | 0.00 | 39 | 1003.7 |
| 20260510015542 | 56 | 12 | 6.0 | 8.0 | 0.00 | 0.00 | 0.00 | 39 | 1003.7 |
| 20260510014547 | 58 | 11 | 6.0 | 12.0 | 0.00 | 0.00 | 0.00 | 37 | 1003.6 |
| 20260510014041 | 59 | 13 | 8.0 | 14.0 | 0.00 | 0.00 | 0.00 | 36 | 1003.5 |
| 20260510013539 | 60 | 5 | 10.0 | 14.0 | 0.00 | 0.00 | 0.00 | 35 | 1003.4 |
| 20260510013038 | 61 | 360 | 10.0 | 19.0 | 0.00 | 0.00 | 0.00 | 34 | 1003.4 |
| 20260510012540 | 61 | 339 | 13.0 | 19.0 | 0.00 | 0.00 | 0.00 | 34 | 1003.3 |
| 20260510012038 | 61 | 329 | 6.0 | 12.0 | 0.00 | 0.00 | 0.00 | 35 | 1003.3 |
| 20260510011541 | 62 | 348 | 7.0 | 11.0 | 0.00 | 0.00 | 0.00 | 35 | 1003.2 |
| 20260510011038 | 62 | 307 | 8.0 | 14.0 | 0.00 | 0.00 | 0.00 | 35 | 1003.3 |
| 20260510010537 | 62 | 298 | 9.0 | 13.0 | 0.00 | 0.00 | 0.00 | 35 | 1003.0 |
| 20260510010036 | 62 | 300 | 10.0 | 14.0 | 0.00 | 0.00 | 0.00 | 35 | 1003.0 |
| 20260510005536 | 62 | 306 | 10.0 | 14.0 | 0.00 | 0.00 | 0.00 | 35 | 1003.0 |
| 20260510004538 | 61 | 297 | 10.0 | 14.0 | 0.00 | 0.00 | 0.00 | 36 | 1003.0 |
| 20260510004035 | 62 | 298 | 12.0 | 19.0 | 0.00 | 0.00 | 0.00 | 35 | 1003.1 |
| 20260510003535 | 62 | 307 | 12.0 | 19.0 | 0.00 | 0.00 | 0.00 | 35 | 1002.9 |
| 20260510003034 | 62 | 298 | 12.0 | 18.0 | 0.00 | 0.00 | 0.00 | 35 | 1003.0 |
| 20260510002536 | 62 | 321 | 12.0 | 15.0 | 0.00 | 0.00 | 0.00 | 34 | 1002.9 |
| 20260510002034 | 63 | 284 | 11.0 | 18.0 | 0.00 | 0.00 | 0.00 | 34 | 1002.9 |
| 20260510001534 | 63 | 279 | 11.0 | 21.0 | 0.00 | 0.00 | 0.00 | 35 | 1002.8 |
| 20260510001034 | 64 | 290 | 15.0 | 20.0 | 0.00 | 0.00 | 0.00 | 33 | 1002.7 |
| 20260510000536 | 64 | 301 | 15.0 | 20.0 | 0.00 | 0.00 | 0.00 | 33 | 1002.8 |
| 20260510000055 | 64 | 281 | 13.0 | 18.0 | 0.00 | 0.00 | 0.00 | 33 | 1002.8 |
| 20260509235538 | 64 | 292 | 12.0 | 19.0 | 0.00 | 0.00 | 0.00 | 33 | 1002.7 |
| 20260509234547 | 64 | 255 | 11.0 | 19.0 | 0.00 | 0.00 | 0.00 | 34 | 1002.7 |
| 20260509234032 | 64 | 261 | 11.0 | 19.0 | 0.00 | 0.00 | 0.00 | 34 | 1002.7 |
| 20260509233535 | 64 | 266 | 12.0 | 21.0 | 0.00 | 0.00 | 0.00 | 34 | 1002.6 |
| 20260509233034 | 64 | 321 | 10.0 | 19.0 | 0.00 | 0.00 | 0.00 | 35 | 1002.7 |
| 20260509232533 | 64 | 303 | 10.0 | 16.0 | 0.00 | 0.00 | 0.00 | 35 | 1002.7 |
| 20260509232033 | 64 | 313 | 12.0 | 18.0 | 0.00 | 0.00 | 0.00 | 36 | 1002.8 |
| 20260509231532 | 63 | 309 | 11.0 | 18.0 | 0.00 | 0.00 | 0.00 | 37 | 1002.8 |
| 20260509231032 | 62 | 318 | 13.0 | 16.0 | 0.00 | 0.00 | 0.00 | 37 | 1002.8 |
| 20260509230535 | 61 | 322 | 11.0 | 18.0 | 0.00 | 0.00 | 0.00 | 37 | 1002.7 |
| 20260509230036 | 62 | 319 | 11.0 | 20.0 | 0.00 | 0.00 | 0.00 | 36 | 1002.8 |
| 20260509225532 | 63 | 340 | 14.0 | 20.0 | 0.00 | 0.00 | 0.00 | 35 | 1002.7 |
| 20260509224531 | 65 | 317 | 13.0 | 25.0 | 0.00 | 0.00 | 0.00 | 35 | 1002.5 |
| 20260509224031 | 64 | 299 | 9.0 | 25.0 | 0.00 | 0.00 | 0.00 | 36 | 1002.7 |
| 20260509223531 | 65 | 248 | 14.0 | 23.0 | 0.00 | 0.00 | 0.00 | 34 | 1002.6 |
| 20260509223030 | 65 | 263 | 14.0 | 21.0 | 0.00 | 0.00 | 0.00 | 34 | 1002.5 |
| 20260509222529 | 65 | 268 | 14.0 | 21.0 | 0.00 | 0.00 | 0.00 | 34 | 1002.8 |
| 20260509222035 | 64 | 360 | 12.0 | 16.0 | 0.00 | 0.00 | 0.00 | 35 | 1002.7 |
| 20260509221528 | 63 | 260 | 11.0 | 23.0 | 0.00 | 0.00 | 0.00 | 35 | 1002.8 |
| 20260509221028 | 64 | 291 | 14.0 | 23.0 | 0.00 | 0.00 | 0.00 | 35 | 1002.8 |
| 20260509220527 | 62 | 321 | 12.0 | 16.0 | 0.00 | 0.00 | 0.00 | 37 | 1002.8 |
| 20260509220027 | 61 | 321 | 9.0 | 23.0 | 0.00 | 0.00 | 0.00 | 36 | 1002.9 |
| 20260509215528 | 61 | 341 | 13.0 | 23.0 | 0.00 | 0.00 | 0.00 | 36 | 1002.8 |
| 20260509215128 | 63 | 315 | 12.0 | 21.0 | 0.00 | 0.00 | 0.00 | 35 | 1002.9 |
| 20260509214531 | 63 | 325 | 11.0 | 21.0 | 0.00 | 0.00 | 0.00 | 37 | 1003.0 |
| 20260509214027 | 62 | 312 | 16.0 | 22.0 | 0.00 | 0.00 | 0.00 | 36 | 1003.0 |
| 20260509213529 | 63 | 302 | 15.0 | 22.0 | 0.00 | 0.00 | 0.00 | 36 | 1003.1 |
| 20260509213027 | 64 | 300 | 13.0 | 22.0 | 0.00 | 0.00 | 0.00 | 34 | 1003.0 |
| 20260509212525 | 63 | 360 | 13.0 | 21.0 | 0.00 | 0.00 | 0.00 | 37 | 1002.9 |
| 20260509212026 | 63 | 320 | 13.0 | 21.0 | 0.00 | 0.00 | 0.00 | 36 | 1003.0 |
| 20260509211525 | 63 | 298 | 13.0 | 18.0 | 0.00 | 0.00 | 0.00 | 36 | 1003.2 |
| 20260509211024 | 63 | 346 | 8.0 | 16.0 | 0.00 | 0.00 | 0.00 | 38 | 1003.0 |
| 20260509210522 | 62 | 300 | 12.0 | 20.0 | 0.00 | 0.00 | 0.00 | 38 | 1003.0 |
| 20260509210028 | 61 | 329 | 14.0 | 21.0 | 0.00 | 0.00 | 0.00 | 39 | 1003.1 |
| 20260509205521 | 61 | 322 | 11.0 | 23.0 | 0.00 | 0.00 | 0.00 | 40 | 1003.1 |
| 20260509204525 | 61 | 326 | 12.0 | 19.0 | 0.00 | 0.00 | 0.00 | 40 | 1003.1 |
| 20260509204025 | 61 | 288 | 9.0 | 20.0 | 0.00 | 0.00 | 0.00 | 39 | 1003.1 |
| 20260509203520 | 61 | 300 | 12.0 | 23.0 | 0.00 | 0.00 | 0.00 | 39 | 1003.2 |
| 20260509203019 | 61 | 304 | 11.0 | 19.0 | 0.00 | 0.00 | 0.00 | 40 | 1003.0 |
| 20260509202518 | 61 | 261 | 11.0 | 21.0 | 0.00 | 0.00 | 0.00 | 39 | 1003.2 |
| 20260509202018 | 61 | 292 | 14.0 | 24.0 | 0.00 | 0.00 | 0.00 | 42 | 1003.1 |
| 20260509201518 | 61 | 322 | 17.0 | 24.0 | 0.00 | 0.00 | 0.00 | 40 | 1003.2 |
| 20260509201017 | 61 | 264 | 9.0 | 21.0 | 0.00 | 0.00 | 0.00 | 41 | 1003.1 |
| 20260509200521 | 60 | 329 | 8.0 | 18.0 | 0.00 | 0.00 | 0.00 | 43 | 1003.2 |
| 20260509200017 | 61 | 328 | 12.0 | 18.0 | 0.00 | 0.00 | 0.00 | 41 | 1003.3 |
| 20260509195519 | 61 | 355 | 13.0 | 20.0 | 0.00 | 0.00 | 0.00 | 42 | 1003.3 |
| 20260509195120 | 60 | 321 | 10.0 | 19.0 | 0.00 | 0.00 | 0.00 | 43 | 1003.2 |
| 20260509194521 | 60 | 290 | 13.0 | 19.0 | 0.00 | 0.00 | 0.00 | 42 | 1003.3 |
| 20260509194017 | 60 | 289 | 8.0 | 21.0 | 0.00 | 0.00 | 0.00 | 43 | 1003.3 |
| 20260509193517 | 60 | 272 | 13.0 | 21.0 | 0.00 | 0.00 | 0.00 | 43 | 1003.4 |
| 20260509193025 | 60 | 293 | 13.0 | 18.0 | 0.00 | 0.00 | 0.00 | 43 | 1003.3 |
| 20260509192516 | 59 | 24 | 8.0 | 16.0 | 0.00 | 0.00 | 0.00 | 43 | 1003.3 |
| 20260509192017 | 59 | 360 | 10.0 | 16.0 | 0.00 | 0.00 | 0.00 | 43 | 1003.3 |
| 20260509191521 | 60 | 316 | 11.0 | 15.0 | 0.00 | 0.00 | 0.00 | 42 | 1003.3 |
| 20260509191016 | 59 | 333 | 9.0 | 18.0 | 0.00 | 0.00 | 0.00 | 43 | 1003.3 |
| 20260509190516 | 59 | 313 | 8.0 | 20.0 | 0.00 | 0.00 | 0.00 | 42 | 1003.4 |
| 20260509190016 | 58 | 311 | 12.0 | 20.0 | 0.00 | 0.00 | 0.00 | 44 | 1003.4 |
| 20260509185517 | 58 | 315 | 6.0 | 18.0 | 0.00 | 0.00 | 0.00 | 45 | 1003.3 |
| 20260509185117 | 59 | 360 | 12.0 | 18.0 | 0.00 | 0.00 | 0.00 | 42 | 1003.5 |
| 20260509184522 | 59 | 323 | 10.0 | 18.0 | 0.00 | 0.00 | 0.00 | 42 | 1003.3 |
| 20260509184015 | 58 | 304 | 11.0 | 19.0 | 0.00 | 0.00 | 0.00 | 44 | 1003.3 |
| 20260509183515 | 58 | 321 | 12.0 | 19.0 | 0.00 | 0.00 | 0.00 | 43 | 1003.3 |
| 20260509183015 | 58 | 327 | 13.0 | 19.0 | 0.00 | 0.00 | 0.00 | 42 | 1003.3 |
| 20260509182515 | 58 | 325 | 11.0 | 18.0 | 0.00 | 0.00 | 0.00 | 44 | 1003.3 |
| 20260509182015 | 57 | 11 | 10.0 | 19.0 | 0.00 | 0.00 | 0.00 | 44 | 1003.4 |
| 20260509181514 | 58 | 5 | 9.0 | 19.0 | 0.00 | 0.00 | 0.00 | 44 | 1003.3 |
| 20260509181015 | 59 | 355 | 12.0 | 21.0 | 0.00 | 0.00 | 0.00 | 43 | 1003.3 |
| 20260509180515 | 58 | 302 | 12.0 | 20.0 | 0.00 | 0.00 | 0.00 | 44 | 1003.2 |
| 20260509180016 | 58 | 316 | 11.0 | 16.0 | 0.00 | 0.00 | 0.00 | 44 | 1003.2 |
| 20260509175513 | 57 | 355 | 8.0 | 18.0 | 0.00 | 0.00 | 0.00 | 45 | 1003.2 |
| 20260509174512 | 59 | 355 | 12.0 | 21.0 | 0.00 | 0.00 | 0.00 | 44 | 1003.2 |
| 20260509174012 | 58 | 325 | 9.0 | 20.0 | 0.00 | 0.00 | 0.00 | 45 | 1003.2 |
| 20260509173512 | 57 | 338 | 12.0 | 18.0 | 0.00 | 0.00 | 0.00 | 44 | 1003.1 |
| 20260509173011 | 57 | 360 | 12.0 | 19.0 | 0.00 | 0.00 | 0.00 | 45 | 1003.0 |
| 20260509172613 | 57 | 20 | 10.0 | 19.0 | 0.00 | 0.00 | 0.00 | 45 | 1003.1 |
| 20260509172010 | 57 | 355 | 10.0 | 18.0 | 0.00 | 0.00 | 0.00 | 44 | 1003.0 |
| 20260509171510 | 57 | 360 | 12.0 | 18.0 | 0.00 | 0.00 | 0.00 | 45 | 1003.0 |
| 20260509171009 | 57 | 338 | 12.0 | 18.0 | 0.00 | 0.00 | 0.00 | 44 | 1003.0 |
| 20260509170509 | 57 | 360 | 7.0 | 15.0 | 0.00 | 0.00 | 0.00 | 45 | 1002.9 |
| 20260509170010 | 57 | 31 | 11.0 | 18.0 | 0.00 | 0.00 | 0.00 | 45 | 1002.8 |
| 20260509165509 | 56 | 349 | 10.0 | 18.0 | 0.00 | 0.00 | 0.00 | 46 | 1002.8 |
| 20260509164510 | 55 | 317 | 9.0 | 14.0 | 0.00 | 0.00 | 0.00 | 47 | 1002.9 |
| 20260509164010 | 55 | 5 | 8.0 | 14.0 | 0.00 | 0.00 | 0.00 | 46 | 1003.0 |
| 20260509163511 | 56 | 20 | 8.0 | 15.0 | 0.00 | 0.00 | 0.00 | 47 | 1002.9 |
| 20260509163013 | 56 | 312 | 7.0 | 15.0 | 0.00 | 0.00 | 0.00 | 48 | 1002.9 |
| 20260509162510 | 56 | 360 | 3.0 | 15.0 | 0.00 | 0.00 | 0.00 | 49 | 1002.8 |
| 20260509162010 | 55 | 348 | 11.0 | 15.0 | 0.00 | 0.00 | 0.00 | 49 | 1002.9 |
| 20260509161510 | 55 | 360 | 7.0 | 16.0 | 0.00 | 0.00 | 0.00 | 48 | 1002.9 |
| 20260509161011 | 55 | 348 | 9.0 | 16.0 | 0.00 | 0.00 | 0.00 | 48 | 1002.8 |
| 20260509160509 | 55 | 344 | 3.0 | 13.0 | 0.00 | 0.00 | 0.00 | 48 | 1002.8 |
| 20260509160009 | 55 | 339 | 7.0 | 14.0 | 0.00 | 0.00 | 0.00 | 49 | 1002.8 |
| 20260509155509 | 54 | 342 | 7.0 | 14.0 | 0.00 | 0.00 | 0.00 | 50 | 1002.9 |
| 20260509154508 | 54 | 323 | 7.0 | 14.0 | 0.00 | 0.00 | 0.00 | 49 | 1002.7 |
| 20260509154008 | 54 | 305 | 10.0 | 14.0 | 0.00 | 0.00 | 0.00 | 49 | 1002.8 |
| 20260509153506 | 54 | 9 | 5.0 | 14.0 | 0.00 | 0.00 | 0.00 | 51 | 1002.7 |
| 20260509153008 | 54 | 5 | 11.0 | 14.0 | 0.00 | 0.00 | 0.00 | 50 | 1002.7 |
| 20260509152506 | 54 | 20 | 9.0 | 13.0 | 0.00 | 0.00 | 0.00 | 50 | 1002.6 |
| 20260509152008 | 53 | 334 | 6.0 | 14.0 | 0.00 | 0.00 | 0.00 | 52 | 1002.6 |
| 20260509151506 | 53 | 13 | 10.0 | 14.0 | 0.00 | 0.00 | 0.00 | 52 | 1002.7 |
| 20260509151005 | 52 | 11 | 7.0 | 13.0 | 0.00 | 0.00 | 0.00 | 52 | 1002.7 |
| 20260509150505 | 52 | 9 | 6.0 | 11.0 | 0.00 | 0.00 | 0.00 | 55 | 1002.7 |
| 20260509150005 | 51 | 355 | 6.0 | 11.0 | 0.00 | 0.00 | 0.00 | 55 | 1002.7 |
| 20260509145505 | 51 | 355 | 4.0 | 12.0 | 0.00 | 0.00 | 0.00 | 55 | 1002.6 |
| 20260509144519 | 51 | 331 | 7.0 | 10.0 | 0.00 | 0.00 | 0.00 | 59 | 1002.6 |
| 20260509144010 | 51 | 17 | 3.0 | 10.0 | 0.00 | 0.00 | 0.00 | 57 | 1002.5 |
| 20260509143505 | 51 | 24 | 7.0 | 10.0 | 0.00 | 0.00 | 0.00 | 56 | 1002.5 |
| 20260509143005 | 51 | 11 | 5.0 | 9.0 | 0.00 | 0.00 | 0.00 | 59 | 1002.4 |
| 20260509142508 | 50 | 331 | 4.0 | 8.0 | 0.00 | 0.00 | 0.00 | 61 | 1002.4 |
| 20260509142008 | 50 | 360 | 4.0 | 8.0 | 0.00 | 0.00 | 0.00 | 62 | 1002.5 |
| 20260509141506 | 49 | 355 | 4.0 | 8.0 | 0.00 | 0.00 | 0.00 | 63 | 1002.3 |
| 20260509141003 | 49 | 15 | 4.0 | 8.0 | 0.00 | 0.00 | 0.00 | 64 | 1002.4 |
| 20260509140503 | 49 | 11 | 5.0 | 10.0 | 0.00 | 0.00 | 0.00 | 66 | 1002.3 |
| 20260509140003 | 48 | 9 | 6.0 | 10.0 | 0.00 | 0.00 | 0.00 | 66 | 1002.3 |
| 20260509135502 | 49 | 355 | 7.0 | 10.0 | 0.00 | 0.00 | 0.00 | 66 | 1002.2 |
| 20260509135107 | 48 | 338 | 7.0 | 10.0 | 0.00 | 0.00 | 0.00 | 68 | 1002.1 |
| 20260509134502 | 48 | 360 | 6.0 | 9.0 | 0.00 | 0.00 | 0.00 | 66 | 1002.0 |
| 20260509134001 | 48 | 350 | 7.0 | 10.0 | 0.00 | 0.00 | 0.00 | 67 | 1002.0 |
| 20260509133501 | 47 | 350 | 7.0 | 11.0 | 0.00 | 0.00 | 0.00 | 68 | 1001.9 |
| 20260509133005 | 47 | 355 | 7.0 | 10.0 | 0.00 | 0.00 | 0.00 | 70 | 1001.9 |
| 20260509132502 | 46 | 360 | 7.0 | 10.0 | 0.00 | 0.00 | 0.00 | 72 | 1001.8 |
| 20260509132000 | 45 | 360 | 7.0 | 10.0 | 0.00 | 0.00 | 0.00 | 73 | 1001.8 |
| 20260509131600 | 45 | 360 | 7.0 | 10.0 | 0.00 | 0.00 | 0.00 | 73 | 1001.9 |
| 20260509131100 | 45 | 360 | 7.0 | 10.0 | 0.00 | 0.00 | 0.00 | 73 | 1001.7 |
| 20260509130601 | 44 | 360 | 7.0 | 10.0 | 0.00 | 0.00 | 0.00 | 75 | 1001.6 |
| 20260509125558 | 43 | 360 | 7.0 | 9.0 | 0.00 | 0.00 | 0.00 | 79 | 1001.5 |
| 20260509125200 | 42 | 360 | 7.0 | 10.0 | 0.00 | 0.00 | 0.00 | 80 | 1001.4 |
| 20260509124600 | 41 | 360 | 8.0 | 10.0 | 0.00 | 0.00 | 0.00 | 81 | 1001.4 |
| 20260509124057 | 41 | 360 | 7.0 | 8.0 | 0.00 | 0.00 | 0.00 | 83 | 1001.3 |
| 20260509123557 | 40 | 360 | 6.0 | 8.0 | 0.00 | 0.00 | 0.00 | 83 | 1001.2 |
| 20260509123127 | 40 | 360 | 4.0 | 6.0 | 0.00 | 0.00 | 0.00 | 84 | 1001.4 |
| 20260509122556 | 39 | 360 | 5.0 | 7.0 | 0.00 | 0.00 | 0.00 | 84 | 1001.2 |
| 20260509122056 | 39 | 360 | 5.0 | 7.0 | 0.00 | 0.00 | 0.00 | 82 | 1001.1 |
| 20260509121611 | 39 | 360 | 5.0 | 7.0 | 0.00 | 0.00 | 0.00 | 81 | 1001.1 |
| 20260509121054 | 40 | 360 | 2.0 | 6.0 | 0.00 | 0.00 | 0.00 | 79 | 1000.9 |
| 20260509120554 | 41 | 360 | 3.0 | 8.0 | 0.00 | 0.00 | 0.00 | 80 | 1000.8 |
| 20260509120112 | 40 | 360 | 6.0 | 8.0 | 0.00 | 0.00 | 0.00 | 81 | 1000.6 |
| 20260509115552 | 40 | 360 | 6.0 | 8.0 | 0.00 | 0.00 | 0.00 | 82 | 1000.4 |
| 20260509115052 | 39 | 360 | 7.0 | 9.0 | 0.00 | 0.00 | 0.00 | 84 | 1000.3 |
| 20260509114600 | 39 | 360 | 7.0 | 9.0 | 0.00 | 0.00 | 0.00 | 84 | 1000.2 |
| 20260509114053 | 38 | 360 | 7.0 | 10.0 | 0.00 | 0.00 | 0.00 | 84 | 1000.1 |
| 20260509113555 | 38 | 360 | 7.0 | 10.0 | 0.00 | 0.00 | 0.00 | 84 | 1000.1 |
| 20260509113055 | 37 | 360 | 8.0 | 10.0 | 0.00 | 0.00 | 0.00 | 84 | 1000.1 |
| 20260509112551 | 37 | 360 | 8.0 | 10.0 | 0.00 | 0.00 | 0.00 | 85 | 999.9 |
| 20260509112050 | 37 | 360 | 8.0 | 10.0 | 0.00 | 0.00 | 0.00 | 84 | 999.9 |
| 20260509111602 | 37 | 360 | 7.0 | 9.0 | 0.00 | 0.00 | 0.00 | 84 | 999.8 |
| 20260509111051 | 37 | 360 | 7.0 | 9.0 | 0.00 | 0.00 | 0.00 | 84 | 999.8 |
| 20260509110549 | 37 | 360 | 7.0 | 9.0 | 0.00 | 0.00 | 0.00 | 84 | 999.7 |
| 20260509110048 | 37 | 360 | 7.0 | 9.0 | 0.00 | 0.00 | 0.00 | 84 | 999.5 |
| 20260509105547 | 37 | 360 | 7.0 | 9.0 | 0.00 | 0.00 | 0.00 | 83 | 999.5 |
| 20260509105147 | 38 | 360 | 7.0 | 9.0 | 0.00 | 0.00 | 0.00 | 84 | 999.5 |
| 20260509104548 | 38 | 360 | 7.0 | 9.0 | 0.00 | 0.00 | 0.00 | 83 | 999.3 |
| 20260509104043 | 39 | 360 | 7.0 | 10.0 | 0.00 | 0.00 | 0.00 | 83 | 999.4 |
| 20260509103543 | 39 | 360 | 7.0 | 10.0 | 0.00 | 0.00 | 0.00 | 83 | 999.3 |
| 20260509103051 | 39 | 360 | 8.0 | 10.0 | 0.00 | 0.00 | 0.00 | 83 | 999.1 |
| 20260509102541 | 39 | 360 | 8.0 | 9.0 | 0.00 | 0.00 | 0.00 | 82 | 999.1 |
| 20260509102040 | 40 | 360 | 7.0 | 9.0 | 0.00 | 0.00 | 0.00 | 82 | 999.1 |
| 20260509101608 | 40 | 360 | 7.0 | 10.0 | 0.00 | 0.00 | 0.00 | 81 | 999.0 |
| 20260509101038 | 41 | 360 | 8.0 | 12.0 | 0.00 | 0.00 | 0.00 | 81 | 998.9 |
| 20260509100540 | 41 | 360 | 7.0 | 12.0 | 0.00 | 0.00 | 0.00 | 81 | 998.8 |
| 20260509100041 | 42 | 360 | 9.0 | 12.0 | 0.00 | 0.00 | 0.00 | 81 | 998.7 |
| 20260509095535 | 42 | 360 | 10.0 | 14.0 | 0.00 | 0.00 | 0.00 | 82 | 998.6 |
| 20260509095135 | 42 | 360 | 11.0 | 14.0 | 0.00 | 0.00 | 0.00 | 82 | 998.5 |